Date String (YYYY-MM-DD hh:mm:ss) UTC,Instrument flags,absolute air pressure of the measurement (hPa),sample flow rate (lpm),inlet stack bypass flow (lpm),air temperature of the measurement (°C),ambient temperature measured by the external sensor (°C),aerosol sample conditioner tube jacket temperature (°C),OPC LED temperature (°C),internal box temperature (°C),relative humidity of the measurement (%),span deviation,mass concentration of particles derived from Lorenz-Mie calculation of OPC scattering (μg/m³),mass concentration of particles derived from Lorenz-Mie calculation of OPC scattering (μg/m³),mass concentration of particles derived from Lorenz-Mie calculation of OPC scattering (μg/m³)
DateTimeUTC,F1_M11,P_M11,Q1_M11,Q2_M11,T1_M11,T2_M11,T3_M11,T4_M11,T5_M11,U1_M11,ZSPAN_M11,X2_M11,X0_M11,X1_M11
2024-04-21 01:00:00,SystemResetWarning,0836.6,4.99,000.00,019.6,019.0,000.0,028.2,021.4,022.0,0000.0,0005.82,0007.94,0005.62
2024-04-21 01:01:00,SystemResetWarning,0836.6,5.00,000.00,019.6,019.0,000.0,028.2,021.4,022.1,0000.0,0005.80,0007.76,0005.62
2024-04-21 01:02:00,SystemResetWarning,0836.6,5.01,000.00,019.6,019.0,000.0,028.2,021.4,022.1,0000.0,0005.82,0007.79,0005.63
2024-04-21 01:03:00,SystemResetWarning,0836.5,5.01,000.00,019.6,019.0,000.0,028.2,021.4,022.1,0000.0,0005.85,0007.85,0005.65
2024-04-21 01:04:00,SystemResetWarning,0836.6,5.00,000.00,019.6,019.0,000.0,028.2,021.4,022.0,0000.0,0005.87,0007.82,0005.66
2024-04-21 01:05:00,SystemResetWarning,0836.6,5.00,000.00,019.6,019.0,000.0,028.2,021.4,022.0,0000.0,0005.87,0007.85,0005.66
2024-04-21 01:06:00,SystemResetWarning,0836.6,4.99,000.00,019.6,019.0,000.0,028.2,021.4,022.1,0000.0,0005.86,0007.67,0005.66
2024-04-21 01:07:00,SystemResetWarning,0836.6,5.00,000.00,019.6,019.0,000.0,028.2,021.4,022.1,0000.0,0005.85,0007.61,0005.67
2024-04-21 01:08:00,SystemResetWarning,0836.6,5.01,000.00,019.6,019.0,000.0,028.2,021.4,022.1,0000.0,0005.83,0007.57,0005.66
2024-04-21 01:09:00,SystemResetWarning,0836.7,5.01,000.00,019.6,019.0,000.0,028.2,021.4,022.1,0000.0,0005.84,0007.58,0005.66
2024-04-21 01:10:00,SystemResetWarning,0836.6,5.00,000.00,019.6,019.0,000.0,028.2,021.4,022.1,0000.0,0005.86,0007.63,0005.67
2024-04-21 01:11:00,SystemResetWarning,0836.6,4.99,000.00,019.6,019.0,000.0,028.2,021.4,022.1,0000.0,0005.85,0007.72,0005.66
2024-04-21 01:12:00,SystemResetWarning,0836.6,4.99,000.00,019.6,019.0,000.0,028.1,021.4,022.1,0000.0,0005.85,0007.84,0005.66
2024-04-21 01:13:00,SystemResetWarning,0836.6,5.00,000.00,019.6,019.0,000.0,028.2,021.4,022.1,0000.0,0005.85,0007.94,0005.66
2024-04-21 01:14:00,SystemResetWarning,0836.6,5.00,000.00,019.6,019.0,000.0,028.2,021.4,022.1,0000.0,0005.83,0007.92,0005.64
2024-04-21 01:15:00,SystemResetWarning,0836.6,5.00,000.00,019.6,019.0,000.0,028.2,021.4,022.1,0001.7,0005.81,0007.93,0005.62
2024-04-21 01:16:00,SystemResetWarning,0836.6,5.01,000.00,019.6,019.0,000.0,028.1,021.4,022.1,0002.3,0005.80,0007.87,0005.61
2024-04-21 01:17:00,SystemResetWarning,0836.6,5.01,000.00,019.6,019.0,000.0,028.1,021.4,022.1,0001.2,0005.78,0007.86,0005.59
2024-04-21 01:18:00,SystemResetWarning,0836.6,5.00,000.00,019.6,019.0,000.0,028.1,021.4,022.1,0001.8,0005.78,0007.84,0005.60
2024-04-21 01:19:00,SystemResetWarning,0836.6,4.99,000.00,019.6,019.0,000.0,028.1,021.4,022.1,0002.0,0005.77,0007.83,0005.59
2024-04-21 01:20:00,SystemResetWarning,0836.6,4.99,000.00,019.6,019.0,000.0,028.1,021.3,022.1,0001.6,0005.78,0007.84,0005.60
2024-04-21 01:21:00,SystemResetWarning,0836.6,5.00,000.00,019.6,018.9,000.0,028.1,021.4,022.0,0000.0,0005.79,0007.85,0005.61
2024-04-21 01:22:00,SystemResetWarning,0836.6,5.00,000.00,019.6,019.0,000.0,028.1,021.4,022.0,0000.0,0005.80,0007.82,0005.60
2024-04-21 01:23:00,SystemResetWarning,0836.5,5.00,000.00,019.6,018.9,000.0,028.1,021.3,022.1,0000.0,0005.80,0007.73,0005.61
2024-04-21 01:24:00,SystemResetWarning,0836.5,5.00,000.00,019.6,018.9,000.0,028.1,021.4,022.1,0000.0,0005.83,0007.66,0005.62
2024-04-21 01:25:00,SystemResetWarning,0836.5,5.00,000.00,019.6,019.0,000.0,028.1,021.3,022.4,0000.0,0005.83,0007.65,0005.63
2024-04-21 01:26:00,SystemResetWarning,0836.6,5.00,000.00,019.6,019.0,000.0,028.1,021.4,023.3,0000.0,0005.84,0007.67,0005.64
2024-04-21 01:27:00,SystemResetWarning,0836.6,5.00,000.00,019.6,019.0,000.0,028.1,021.4,022.6,0000.0,0005.88,0007.76,0005.66
2024-04-21 01:28:00,SystemResetWarning,0836.6,5.00,000.00,019.6,019.0,000.0,028.1,021.3,022.3,0000.0,0005.90,0007.77,0005.67
2024-04-21 01:29:00,SystemResetWarning,0836.7,4.99,000.00,019.6,019.0,000.0,028.1,021.3,022.2,0000.0,0005.91,0007.76,0005.67
2024-04-21 01:30:00,SystemResetWarning,0836.6,4.99,000.00,019.6,019.0,000.0,028.1,021.4,022.2,0000.0,0005.93,0007.81,0005.67
2024-04-21 01:31:00,SystemResetWarning,0836.6,5.00,000.00,019.6,019.0,000.0,028.1,021.4,022.2,0000.0,0005.94,0007.86,0005.68
2024-04-21 01:32:00,SystemResetWarning,0836.6,5.00,000.00,019.6,019.0,000.0,028.1,021.4,022.2,0000.0,0005.95,0007.87,0005.68
2024-04-21 01:33:00,SystemResetWarning,0836.6,5.01,000.00,019.6,019.0,000.0,028.1,021.3,022.2,0000.0,0005.97,0007.95,0005.69
2024-04-21 01:34:00,SystemResetWarning,0836.7,5.00,000.00,019.5,019.0,000.0,028.1,021.3,022.1,0000.0,0005.99,0008.01,0005.69
2024-04-21 01:35:00,SystemResetWarning,0836.6,4.99,000.00,019.6,019.0,000.0,028.1,021.3,022.2,0000.0,0005.96,0007.90,0005.68
2024-04-21 01:36:00,SystemResetWarning,0836.6,4.99,000.00,019.6,019.0,000.0,028.1,021.3,022.2,0000.0,0005.96,0007.97,0005.67
2024-04-21 01:37:00,SystemResetWarning,0836.6,5.00,000.00,019.6,019.0,000.0,028.1,021.3,022.2,0000.0,0005.97,0008.02,0005.67
2024-04-21 01:38:00,SystemResetWarning,0836.6,5.00,000.00,019.6,019.0,000.0,028.1,021.3,022.3,0000.0,0005.94,0007.92,0005.67
2024-04-21 01:39:00,SystemResetWarning,0836.7,5.01,000.00,019.6,019.0,000.0,028.1,021.3,022.2,0000.0,0005.95,0007.96,0005.67
2024-04-21 01:40:00,SystemResetWarning,0836.8,5.00,000.00,019.5,019.0,000.0,028.1,021.3,022.2,-000.2,0005.99,0008.07,0005.70
2024-04-21 01:41:00,SystemResetWarning,0836.7,5.00,000.00,019.5,019.0,000.0,028.1,021.3,022.3,-000.4,0006.01,0008.18,0005.72
2024-04-21 01:42:00,SystemResetWarning,0836.7,5.00,000.00,019.5,019.0,000.0,028.1,021.3,022.3,0000.1,0006.01,0008.15,0005.73
2024-04-21 01:43:00,SystemResetWarning,0836.7,5.00,000.00,019.5,019.0,000.0,028.1,021.3,022.3,-000.0,0006.05,0008.26,0005.74
2024-04-21 01:44:00,SystemResetWarning,0836.6,4.99,000.00,019.5,019.0,000.0,028.1,021.3,022.2,0000.2,0006.07,0008.30,0005.76
2024-04-21 01:45:00,SystemResetWarning,0836.7,5.00,000.00,019.5,019.0,000.0,028.1,021.3,022.2,0000.9,0006.07,0008.28,0005.78
2024-04-21 01:46:00,SystemResetWarning,0836.7,5.01,000.00,019.5,018.9,000.0,028.1,021.3,022.2,0000.6,0006.13,0008.45,0005.80
2024-04-21 01:47:00,SystemResetWarning,0836.7,5.01,000.00,019.5,018.9,000.0,028.1,021.3,022.2,0000.9,0006.15,0008.43,0005.82
2024-04-21 01:48:00,SystemResetWarning,0836.8,5.00,000.00,019.5,018.9,000.0,028.1,021.3,022.2,0000.9,0006.16,0008.38,0005.84
2024-04-21 01:49:00,SystemResetWarning,0836.8,5.00,000.00,019.5,018.9,000.0,028.1,021.3,022.2,0000.6,0006.20,0008.47,0005.86
2024-04-21 01:50:00,SystemResetWarning,0836.8,5.00,000.00,019.5,018.9,000.0,028.1,021.3,022.3,0000.2,0006.23,0008.49,0005.88
2024-04-21 01:51:00,SystemResetWarning,0836.7,5.00,000.00,019.5,018.9,000.0,028.1,021.3,022.2,0000.1,0006.23,0008.93,0005.89
2024-04-21 01:52:00,SystemResetWarning,0836.6,4.99,000.00,019.5,018.9,000.0,028.1,021.3,022.2,0000.0,0006.23,0008.97,0005.89
2024-04-21 01:53:00,SystemResetWarning,0836.6,5.00,000.00,019.5,018.9,000.0,028.1,021.3,022.2,0000.1,0006.24,0009.04,0005.88
2024-04-21 01:54:00,SystemResetWarning,0836.6,5.00,000.00,019.5,018.9,000.0,028.1,021.3,022.3,0000.4,0006.22,0008.99,0005.88
2024-04-21 01:55:00,SystemResetWarning,0836.6,5.00,000.00,019.5,018.9,000.0,028.1,021.3,022.3,0000.1,0006.20,0008.95,0005.86
2024-04-21 01:56:00,SystemResetWarning,0836.6,5.00,000.00,019.5,018.9,000.0,028.1,021.3,022.3,-000.2,0006.21,0008.99,0005.85
2024-04-21 01:57:00,SystemResetWarning,0836.7,5.00,000.00,019.5,018.9,000.0,028.1,021.3,022.3,-000.4,0006.18,0008.87,0005.85
2024-04-21 01:58:00,SystemResetWarning,0836.7,5.01,000.00,019.5,018.9,000.0,028.1,021.3,022.3,-000.3,0006.17,0008.87,0005.84
2024-04-21 01:59:00,SystemResetWarning,0836.7,5.00,000.00,019.5,018.9,000.0,028.0,021.3,022.4,-000.4,0006.17,0008.88,0005.83
